Home   Weather   Białystok   Past weeks

Flag for Poland Past Weather in Białystok, Poland — Yesterday and Last 2 Weeks

Now
62 °F

Passing clouds.


Feels Like: 62 °F
Forecast: 51 / 77 °F
Wind: 2 mph from Northwest

Location: Bialystok

Current Time: May 29, 2017 at 11:02:04 pm

Latest Report: May 29, 2017 at 10:00 pm


Visibility: 31 mi

Pressure: 29.88 "Hg

Humidity: 73%

Dew Point: 53 °F

Location of BiałystokLocation

Past Weather in Białystok — Graph

°F

Białystok Temperature Yesterday

Maximum temperature yesterday: 79 °F (at 4:00 pm)
Minimum temperature yesterday: 44 °F (at 4:00 am)
Average temperature yesterday: 64 °F

High & Low Weather Summary for the Past Weeks

 TemperatureHumidityPressure
High80 °F (May 29, 4:00 pm)98% (May 20, 5:00 am)30.45 "Hg (May 20, 5:00 am)
Low37 °F (May 17, 5:00 am)31% (May 17, 4:00 pm)29.79 "Hg (May 29, 5:00 pm)
Average60 °F65%30.08 "Hg
* Reported May 14 9:00 pm — May 29 9:00 pm, Białystok. Weather by CustomWeather, © 2017

Note: Actual official high and low records may vary slightly from our data, if they occured in-between our weather recording intervals... More about our weather records

Advertising

Białystok Weather History for the Previous 24 Hours

Scroll right to see more
 ConditionsComfort  
Time TempWeatherWind HumidityBarometerVisibility
9:00 pm
Mon, May 29
64 °FPassing clouds.2 mph71%29.86 "Hg28 mi
8:00 pm67 °FOvercast.3 mph66%29.84 "Hg25 mi
7:00 pm70 °FPartly sunny.3 mph61%29.83 "Hg25 mi
6:00 pm74 °FScattered clouds.6 mph56%29.81 "Hg16 mi
5:00 pm80 °FScattered clouds.3 mph34%29.79 "Hg22 mi
4:00 pm80 °FPartly sunny.5 mph48%29.79 "Hg17 mi
3:00 pm74 °FSprinkles. Overcast.3 mph59%29.83 "Hg16 mi
2:00 pm77 °FScattered clouds.5 mph55%29.83 "Hg19 mi
1:00 pm74 °FScattered clouds.5 mph57%29.85 "Hg19 mi
12:00 pm71 °FPartly sunny.3 mph66%29.87 "Hg16 mi
11:00 am69 °FSprinkles. Overcast.5 mph66%29.89 "Hg6 mi
10:00 am69 °FOvercast.3 mph61%29.88 "Hg19 mi
9:00 am69 °FPartly sunny.3 mph62%29.88 "Hg19 mi
8:00 am65 °FOvercast.2 mph66%29.90 "Hg19 mi
7:00 am64 °FOvercast.3 mph67%29.91 "Hg25 mi
6:00 am62 °FScattered clouds.3 mph69%29.93 "Hg19 mi
5:00 am59 °FScattered clouds.2 mph74%29.96 "Hg25 mi
4:00 am59 °FPassing clouds.2 mph75%29.98 "Hg31 mi
3:00 am59 °FPassing clouds.3 mph74%30.00 "Hg31 mi
2:00 am59 °FPassing clouds.2 mph75%30.02 "Hg31 mi
1:00 am58 °FPassing clouds.2 mph78%30.04 "Hg31 mi
12:00 am56 °FClear.2 mph85%30.06 "Hg25 mi
11:00 pm
Sun, May 28
56 °FClear.2 mph88%30.08 "Hg31 mi
Weather by CustomWeather, © 2017

See weather overviewHow to use our weather pages